New Bedford Regional Airport
KEWB : now visible

Airfield :











YOU CAN JOIN US ON...

 
LOGIN :

Register | Disclaimer

   EN    FR    IT 

 









Legend :    VFR   Marginal VFR   IFR   Intensive IFR   Very Intensive IFR
Visi :
Ceiling :
>= 8 km
>= 3000ft
5 to 8 km
1000 to 3000 ft
1500m to 5 km
500 to 1000 ft
800 to 1500m
200 to 500 ft
< 800m
< 200 ft
Symbols :   Thunderstorms  Fog  Heavy snow  Heavy precipitations  Wind > 20 kt






- Airport Elevation : 80 ft
- IATA code : EWB


KEWB - New Bedford Regional

CURRENT METAR :
  • 201553Z 05007KT 10SM OVC015 17/13 A3005 RMK AO2 SLP175 T01670128

EXPIRED METARs :
  • 201545Z 07010KT 10SM OVC015 17/12 A3005 RMK AO2 T01670122
  • 201453Z 06013KT 10SM OVC012 16/12 A3004 RMK AO2 SLP173 T01560122 50002
  • 201430Z 02006KT 10SM OVC010 16/12 A3004 RMK AO2 T01560122
  • 201353Z 03007KT 10SM OVC008 14/12 A3005 RMK AO2 SLP175 T01440117
  • 201253Z 03009G15KT 10SM OVC008 14/12 A3005 RMK AO2 SLP175 T01390117
  • 201153Z 04009KT 10SM OVC006 13/12 A3004 RMK AO2 SLP171 T01280117 10128 20111 53007

TAF N/A
KZBW FIR / North America



MET'MAP, your aeronautical weather chart ! - Copyright ORBIFLY December 2007 - Disclaimer

ORBIFLY MET'MAP TEAM :

Programming & Development : Alexandra Zaïnal
Original concept : Baudouin d'Aumeries
Technical & hardware support : Manuel Goepfert
Assistance : Marc-Olivier Méhu




SOURCES & CREDITS :

   NOAA       Earth
Advisory